User: anonymous   Login
Location: *
(37.9500°N, 27.3666°E)
Time: 12:13:53
(UTC+00:00)
Language:

OAO 3 Rocket - Orbit

View from above orbital plane
View from above orbital plane
View from above satellite
View from above satellite

Ground track
Ground track

The orbit data is extracted from the following two-line orbital elements,

1 06155U 72065B   22019.69788256  .00000465  00000-0  76164-4 0  9995
2 06155  35.0041 107.4784 0038166 328.7371  31.1059 14.71789852618295
Epoch (UTC): 19 January 2022 16:44:57
Eccentricity: 0.0038166
inclination: 35.0041°
perigee height: 628 km
apogee height: 682 km
right ascension of ascending node: 107.4784°
argument of perigee: 328.7371°
revolutions per day: 14.71789852
mean anomaly at epoch: 31.1059°
orbit number at epoch: 61829

The dashed part of the orbit path shows where the satellite is in the earth's shadow,  

DLR